Regional Weather Roundup
Issued by NWS Wakefield, VA

Home | Current Version | Previous Version | Text Only | Print | Product List | Glossary On
Versions: 1 2 3 4 5 6 7 8 9 10 11 12 13 14 15 16 17 18 19 20 21 22 23 24 25 26 27 28 29 30 31 32 33 34 35 36 37 38 39 40 41 42 43 44 45 46 47 48 49 50
000
ASUS41 KAKQ 290410
RWRAKQ

REGIONAL WEATHER ROUNDUP
NATIONAL WEATHER SERVICE WAKEFIELD VA
1100 PM EST SUN DEC 28 2014

Note: "fair" indicates few or no clouds below 12,000 feet with no
significant weather and/or obstructions to visibility. * = Denotes
station may not report precipitation (e.g., rain,snow,etc.),
thunder or fog.

VAZ042-051-052>054-056-290500-
NORTHERN VIRGINIA

CITY           SKY/WX    TMP DP  RH WIND       PRES   REMARKS
WASH NATIONAL  LGT RAIN  50  41  71 N9        30.12R
DULLES         LGT RAIN  45  37  73 N9        30.11R
FORT BELVOIR   LGT RAIN  48  43  81 NW3       30.12R
QUANTICO       LGT RAIN  48  43  82 N8        30.11R
FREDERICKSBRG* DRIZZLE   50  49  96 N6        30.09R
STAFFORD*      RAIN      47  47 100 N7        30.13R
WARRENTON      DRIZZLE   48  47  99 NE6       30.09R
CULPEPER*      DRIZZLE   48  46  93 NE3       30.11R
MANASSAS*      CLOUDY    46  45  93 N6        30.11R
LEESBURG*      LGT RAIN  46  39  76 N8        30.12R
WINCHESTER     CLOUDY    45  32  61 NW9       30.11R
FRONT ROYAL*   CLOUDY    45  37  76 N6        30.10R
LURAY*         CLOUDY    46  43  87 NE7       30.09R
$$

VAZ048-049-060>072-079>083-290500-
CENTRAL AND SOUTH CENTRAL VIRGINIA

CITY           SKY/WX    TMP DP  RH WIND       PRES   REMARKS
RICHMOND       CLOUDY    52  49  89 CALM      30.07R FOG
CHESTERFIELD*  CLOUDY    52  41  66 CALM      30.07R
PETERSBURG*    CLOUDY    50  49  97 CALM      30.07R FOG
HANOVER        CLOUDY    49  48  97 N3        30.08R FOG
TAPPAHANNOCK*  CLOUDY    51  44  78 CALM      30.07R
QUINTON*       CLOUDY    50  50  99 CALM      30.06R
CHARLOTTSVILLE LGT RAIN  47  44  90 N5        30.08R
GORDONSVILLE*  CLOUDY    47  45  93 NE5       30.07R
ORANGE*        DRIZZLE   48  46  93 N5        30.10R
LOUISA*        LGT RAIN  48  46  93 N5        30.07R
BUMPASS*       CLOUDY    49  46  92 CALM      30.08R
FARMVILLE*     CLOUDY    55  48  77 CALM      30.04F
CREWE*         CLOUDY    55  48  77 W3        30.05S
FORT PICKETT*  CLOUDY    53  50  89 W5        30.05S
CHASE CITY*    CLOUDY    52  52 100 CALM      30.06S
CLARKSVILLE*   CLOUDY    52  52 100 CALM      30.05S
SOUTH HILL*    CLOUDY    55  54  97 CALM      30.11S
LAWRENCEVILLE* CLOUDY    55  55 100 CALM      30.06R
EMPORIA*       CLOUDY    54  54 100 CALM      30.07S
$$

VAZ088>098-290500-
SOUTHEAST VIRGINIA

CITY           SKY/WX    TMP DP  RH WIND       PRES   REMARKS
NORFOLK        CLOUDY    59  56  89 CALM      30.05R
VIRGINIA BEACH CLOUDY    60  57  89 W5        30.04S
NORFOLK NAVAL  CLOUDY    61  56  83 CALM      30.06S
WEST POINT*    CLOUDY    53  51  93 CALM      30.08R
SALUDA*        CLOUDY    49  46  88 CALM      30.06R
NEWPORT NEWS   CLOUDY    59  54  83 CALM      30.05S
LANGLEY AFB    CLOUDY    54  52  91 NE1       30.05S
FORT EUSTIS    CLOUDY    55  55 100 CALM      30.04R
WILLIAMSBURG*  CLOUDY    55  54  94 CALM      30.06R
HR EXEC AP*    CLOUDY    57  55  94 CALM      30.07S
FRANKLIN*      MOCLDY    57  57 100 CALM      30.05S
WAKEFIELD      CLOUDY    57  55  93 CALM      30.05R
$$

VAZ020-022-025-037-045-290500-
WEST CENTRAL AND SOUTHWEST VIRGINIA

CITY           SKY/WX    TMP DP  RH WIND       PRES   REMARKS
STAUNTON*      CLOUDY    47  45  93 NE7       30.08S
WAYNESBORO*    CLOUDY    49  45  84 SW3       30.07R
HOT SPRINGS VA CLOUDY    39  39 100 W10       30.03S
LYNCHBURG      CLOUDY    50  46  86 CALM      30.07S
DANVILLE       CLOUDY    52  49  89 CALM      30.07R FOG
SOUTH BOSTON*  CLOUDY    50  49  95 CALM      30.06S
MARTINSVILLE   CLOUDY    46  46 100 CALM      30.10R
ROANOKE        CLOUDY    51  45  79 W6        30.09R
BLACKSBURG     CLOUDY    46  44  93 W5        30.11R
DUBLIN*        CLOUDY    48  48 100 CALM      30.08F
MARION*        FOG       47  46  96 W8        30.10F VSB 1/4
HILLSVILLE*    CLOUDY    47  45  94 NW5       30.08S
RICHLANDS*     FOG       42  41  95 NW5       30.08F VSB<1/4
WISE*          LGT RAIN  41  41 100 NE3       30.09F VSB 1/4
ABINGDON*      FOG       48  48 100 CALM      30.09F VSB 1/2
$$

MDZ021>025-VAZ099-100-290500-
SOUTHERN MARYLAND AND THE DELMARVA PENINSULA

CITY           SKY/WX    TMP DP  RH WIND       PRES   REMARKS
PATUXENT RIVER CLOUDY    49  46  90 NW7       30.08R
BAY BRIDGE APT LGT RAIN  45  45 100 NW3       30.10R
LEONARDTOWN    CLOUDY    50  45  81 CALM      30.10R
DOVER          LGT RAIN  48  48 100 NW6       30.07R
GEORGETOWN     CLOUDY    50  46  86 NW3       30.08R
EASTON         LGT RAIN  50  50 100 N7        30.13R
CAMBRIDGE      CLOUDY    52  48  87 NW6       30.08R
SALISBURY      CLOUDY    51  48  89 CALM      30.06R
OCEAN CITY     CLOUDY    50  47  89 CALM      30.06F
WALLOPS ISLAND CLOUDY    52  45  77 N3        30.06S
ACCOMACK*      CLOUDY    50  45  81 CALM      30.06R
$$

NCZ012>017-030>032-290500-
NORTH CENTRAL AND EASTERN NORTH CAROLINA

CITY           SKY/WX    TMP DP  RH WIND       PRES   REMARKS
ROANOKE RAPIDS FOG       54  54 100 CALM      30.05F VSB 3/4
RALEIGH        FOG       55  54  96 SW3       30.08S VSB 1/8
ELIZABETH CITY CLOUDY    62  57  83 CALM      30.06R
AHOSKIE*       CLOUDY    56  56  97 CALM      30.06S FOG
EDENTON*       CLOUDY    57  56  97 CALM      30.06R FOG
CURRITUCK*     CLOUDY    59  57  94 W3        30.06R
KILL DEVIL HLS CLOUDY    59  59 100 SW5       30.03S
MANTEO         CLOUDY    57  57 100 SW3       30.05S FOG
CAPE HATTERAS  CLOUDY    58  56  93 CALM      30.06S
TARBORO*       FOG       54  53  97 CALM      30.07S VSB 1/4
GOLDSBORO      CLOUDY    59  59 100 NW1       30.06R FOG
WASHINGTON     CLOUDY    59  58  98 CALM      30.06S
GREENVILLE     CLOUDY    59  59 100 CALM      30.08R FOG
NEW BERN       CLOUDY    61  57  87 CALM      30.07S
WILMINGTON     MOCLDY    62  61  96 CALM      30.07R
$$

VAZ048-290500-
ELSEWHERE

CITY           SKY/WX    TMP DP  RH WIND       PRES   REMARKS
HARRISBURG PA  CLOUDY    41  31  67 NW6       30.10R
BALTIMORE      LGT RAIN  46  40  79 N9        30.09R
ANNAPOLIS      LGT RAIN  48  40  73 NW9       30.09R
ANDREWS AFB    LGT RAIN  47  45  91 N7        30.10R
PHILADELPHIA   LGT RAIN  49  38  65 NW8       30.08R
HENDERSON NC   FOG       54  52  95 SW5       30.06S VSB 1/4
GREENSBORO     FOG       49  49 100 SW3       30.06S VSB 1/2
ROCKY MOUNT    FOG       54  53  97 CALM      30.07R VSB 1/4
$$

VAZ100-290500-
MARINE

STATION/POSITION TIME  TEMP    WIND        PRES    WAVE   SWELL
                       AIR SEA DIR/SP/G            HT/PER HT/PER
                 (UTC) (F)     (DEG/KT/KT) (MB)    (FT/S) (FT/S)
CAPE MAY NJ      0400   46 46  310/  4/  6 1017.6R
LEWES DE         0400   47 44  330/  5/  6 1018.0R
15NM E FENWICK I 0400   48 45              1017.6R   3/ 5
OCEAN-CITY-INLET 0400   51 46  360/  1/  1 1017.4R
WACHAPREAGUE VA  0400   52 50   CALM  /  2 1017.5F
THOMAS POINT MD  0400   48 43  350/ 10/ 11 1020.4R
GOOSES REEF MD   0400   46     VRB 10/ 12  1018.0R   0
COVE POINT MD    0400   46      10/  4/  5 1018.3R
SOLOMONS ISLAND  0400      44                N/A
BISHOPS HEAD MD  0400   48 46  310/  2/  3 1017.6R
PINEY POINT MD   0400           20/  2/  2   N/A
POTOMAC MD       0400   48 44  360/  4/  4 1017.5R   0
CAMBRIDGE MD     0400   48 43  300/  2/  4 1018.1F
LEWISETTA VA     0400   49 45  360/  1/  3 1017.9R
RAPPAHANNOCK LGT 0400          350/  6/  7 1018.1R
STINGRAY PT      0400   47 45   30/  4/  6 1018.3R   0
YORK RVR RNG VA  0400   51      CALM  /  1 1016.8R
YORKTOWN VA      0400   50 47   CALM  /  1 1017.4R
JAMESTOWN VA     0400   51 47   CALM  /  2   N/A     0
DOMINION TERM VA 0400   58     310/  3/  4 1017.4S
KIPTOPEKE VA     0400      51   CALM  /  1   N/A
CHES BAY BRIDGE  0400   55 46  300/  2/  3 1017.0S
CAPE HENRY VA    0400   54     300/  4/  4 1016.2S
CHESAPEAKE LGHT  0300   57     250/  7/  7 1017.9R
WILLOUBY STN VA  0400   55     280/  4/  4 1017.9S
S CRANEY ISL VA  0400          290/  1/  2 1017.3R
CAPE HENRY BUOY  0400      48                N/A     2/13   2/13
1ST LANDING BUOY 0400   51 46  340/  4/  4 1017.2R   1/ 5
CAPE CHARLES BUO 0400      48                N/A     2/13   2/13
64NM E OF VA BCH 0400   55 53  140/  2/  4 1016.6F   3/ 5   3/ 5
DUCK PIER NC     0400   59 50  180/  9/ 12 1016.0R
44100 DUCK FRF   0400      50                N/A     2/13   2/13
44056 DUCK FRF   0400      49                N/A     2/13   2/13
OREGON INLET NC  0400   56 53  180/  3/  3 1017.4R
HATTERAS NC      0400   55 56  320/  3/  3 1018.3S
DIAMOND SHLS NC  0400   64                 1018.2R   3/11
CAPE LOOKOUT NC  0300   60     280/  5/  5 1018.1R
$$



USA.gov is the U.S. government's official web portal to all federal, state and local government web resources and services.